Time,TemperatureF,DewpointF,PressureIn,WindDirection,WindDirectionDegrees,WindSpeedMPH,WindSpeedGustMPH,Humidity,HourlyPrecipIn,Conditions,Clouds,dailyrainin,SolarRadiationWatts/m^2,SoftwareType,DateUTC
2013-07-15 00:00:00,74.0,44.0,-100.00,ESE,110,1.0,-999.0,34,-99.99,,,-99.99,0.000000,,2013-07-15 06:00:00,
2013-07-15 02:00:00,67.0,44.0,-100.00,SE,135,2.0,-999.0,44,-99.99,,,-99.99,0.000000,,2013-07-15 08:00:00,
2013-07-15 02:53:00,67.0,44.0,-100.00,SE,135,2.0,-999.0,44,-99.99,,,-99.99,0.000000,,2013-07-15 08:53:00,
2013-07-15 03:00:00,69.0,43.0,-100.00,ESE,118,3.0,-999.0,39,-99.99,,,-99.99,0.000000,,2013-07-15 09:00:00,
2013-07-15 03:52:00,69.0,43.0,-100.00,ESE,118,3.0,-999.0,39,-99.99,,,-99.99,0.000000,,2013-07-15 09:52:00,
2013-07-15 04:00:00,65.0,44.0,-100.00,East,83,3.0,5.0,47,-99.99,,,-99.99,0.000000,,2013-07-15 10:00:00,
2013-07-15 04:53:00,65.0,44.0,-100.00,East,83,3.0,5.0,47,-99.99,,,-99.99,0.000000,,2013-07-15 10:53:00,
2013-07-15 05:00:00,64.0,44.0,-100.00,SE,130,2.0,4.0,49,-99.99,,,-99.99,0.000000,,2013-07-15 11:00:00,
2013-07-15 05:52:00,64.0,44.0,-100.00,SE,130,2.0,4.0,49,-99.99,,,-99.99,0.000000,,2013-07-15 11:52:00,
2013-07-15 06:00:00,63.0,44.0,-100.00,SE,142,3.0,4.0,50,-99.99,,,-99.99,0.050000,,2013-07-15 12:00:00,
2013-07-15 07:00:00,62.0,45.0,-100.00,SSE,159,3.0,5.0,54,-99.99,,,-99.99,10.120000,,2013-07-15 13:00:00,
2013-07-15 08:00:00,70.0,47.0,-100.00,SSE,162,3.0,5.0,45,-99.99,,,-99.99,119.900002,,2013-07-15 14:00:00,
2013-07-15 09:00:00,73.0,45.0,-100.00,SSE,160,3.0,6.0,37,-99.99,,,-99.99,145.800003,,2013-07-15 15:00:00,
2013-07-15 09:53:00,73.0,45.0,-100.00,SSE,160,3.0,6.0,37,-99.99,,,-99.99,145.800003,,2013-07-15 15:53:00,
2013-07-15 10:00:00,78.0,45.0,-100.00,South,174,4.0,6.0,31,-99.99,,,-99.99,440.200012,,2013-07-15 16:00:00,
2013-07-15 10:52:00,78.0,45.0,-100.00,South,174,4.0,6.0,31,-99.99,,,-99.99,440.200012,,2013-07-15 16:52:00,
2013-07-15 11:00:00,85.0,44.0,-100.00,SSW,193,4.0,7.0,24,-99.99,,,-99.99,719.700012,,2013-07-15 17:00:00,
2013-07-15 19:00:00,83.0,44.0,-100.00,ENE,64,20.0,29.0,26,-99.99,,,-99.99,287.700012,,2013-07-16 01:00:00,
2013-07-15 20:00:00,81.0,46.0,-100.00,SSE,148,12.0,28.0,29,-99.99,,,-99.99,47.869999,,2013-07-16 02:00:00,
2013-07-15 23:00:00,77.0,47.0,-100.00,South,187,5.0,11.0,35,-99.99,,,-99.99,0.000000,,2013-07-16 05:00:00,
2013-07-15 23:52:00,77.0,47.0,-100.00,South,187,5.0,11.0,35,-99.99,,,-99.99,0.000000,,2013-07-16 05:52:00,